星链-5321 (STARLINK-5321 )

导读

STARLINK-5321是美国太空探索技术公司星链卫星网络中的一颗卫星,于2023年1月19日发射升空,属于星链项目第二批组网卫星。星链计划旨在构建全球卫星互联网星座,该卫星承担着为全球偏远地区、海洋等区域提供宽带互联网接入服务的任务,进一步推进了星链星座的组网进程。

基本信息
目录编号:
55302
目录名称:
STARLINK-5321
国际标识:
2023-010AK
轨道中心:
EARTH
卫星名称:
星链-5321
卫星全名:
星链-5321 (STARLINK-5321 )
卫星状态:
在轨 (已飞行1243 天)
发射日期:
2023-01-19 UTC
国别 :
美国 (US)
星等 :
--
轨道信息
数据来源 国际轨道数据 AOE轨道数据
星历时间 2026-06-14T23:21:41+0800
14小时前
查看轨道信息
2026-06-13T11:00:00+0800
2天前
查看轨道信息
半长轴 6950.173km 6950.187km
偏心率 0.0003266 0.0003369
轨道倾角 69.999° 70.000°
近地点辐角 271.731° 272.784°
升交点赤经 139.915° 143.736°
平近点角 88.347° 197.395°
近地点 569.766km 569.708km
远地点 574.306km 574.392km
周期 96.107分钟 96.107分钟
每日圈数 14.983366 14.983322
详细信息
固有亮度:
5
最大亮度:
2.5
卫星平台:
Starlink v1.5
覆盖范围:
全球
运营商:
太空探索技术公司
运营商所在国:
美国
制造商(研发单位):
太空探索技术公司
制造商所在国:
美国
使用方式:
暂无
卫星简介
星链(Starlink)计划是由太空探索技术公司(SpaceX)提出的一个巨型低轨卫星互联网星座项目,计划在2019年至2024年间在太空搭建由约1.2万颗卫星组成的“星链”网络,其中1584颗将部署在地球上空550千米处的近地轨道,并从2020年开始工作。该卫星仍在工作。
2D轨道图
3D轨道图
轨道高度分析图
轨道倾角分析图
轨道综合分析图
查看轨道综合分析图